Weather reports worldwide

Advertisment
Wattisham, United Kingdom (3590): temperature & dewpoint: 24.09.2020 23:00:00 - 30.09.2020 23:00:00 (BST)Wattisham, United Kingdom (3590): temperature -20cm & temperature -100cm: 24.09.2020 23:00:00 - 30.09.2020 23:00:00 (BST)Wattisham, United Kingdom (3590): wind speed & gusts: 24.09.2020 23:00:00 - 30.09.2020 23:00:00 (BST)Wattisham, United Kingdom (3590): wind direction: 24.09.2020 23:00:00 - 30.09.2020 23:00:00 (BST)Wattisham, United Kingdom (3590): reduced air pressure: 24.09.2020 23:00:00 - 30.09.2020 23:00:00 (BST)Wattisham, United Kingdom (3590): visibility: 24.09.2020 23:00:00 - 30.09.2020 23:00:00 (BST)Wattisham, United Kingdom (3590): sunshine duration: 24.09.2020 23:00:00 - 30.09.2020 23:00:00 (BST)Wattisham, United Kingdom (3590): precipitation: 24.09.2020 23:00:00 - 30.09.2020 23:00:00 (BST)
Date & Time tt [°C] td [°C] tt -20cm [°C] tt -100cm [°C] ff [km/h] ff [kn] fx [km/h] fx [kn] dd ppp [hPa] vv [km] sd [min] rr [mm]
30.09.2020 23:00:00 13,7 13,3 - - 18 10 - - S 1001,3 2,5 0 3,2
30.09.2020 22:00:00 14,0 13,4 - - 21 11 - - S 1002,0 7 0 1,4
30.09.2020 21:00:00 14,5 13,5 - - 21 11 - - S 1002,7 10 0 0,6
30.09.2020 20:00:00 14,3 13,5 - - 15 8 - - S 1003,3 15 0 0,4
30.09.2020 19:00:00 13,3 12,4 - - 18 10 54 29 S 1003,9 10 0 1,2
30.09.2020 18:00:00 14,5 13,6 - - 21 11 - - S 1004,2 10 0 1,0
30.09.2020 17:00:00 15,9 12,7 - - 24 13 - - S 1005,0 10 0 0,0
30.09.2020 16:00:00 16,7 12,4 - - 18 10 - - S 1005,5 10 0 0,0
30.09.2020 15:00:00 16,8 11,6 - - 24 13 - - SSW 1006,3 10 24 0,0
30.09.2020 14:00:00 16,7 12,1 - - 15 8 - - S 1006,9 10 0 0,0
30.09.2020 13:00:00 16,0 12,0 - - 22 12 - - SSW 1007,9 10 0 0,0
30.09.2020 12:00:00 15,2 12,1 - - 21 11 - - SSW 1008,6 10 6 0,0
30.09.2020 11:00:00 14,8 11,9 - - 16 9 - - S 1009,4 10 54 0,0
30.09.2020 10:00:00 12,8 11,3 - - 13 7 - - S 1010,3 10 54 0,0
30.09.2020 09:00:00 10,8 10,7 - - 11 6 - - S 1011,0 10 30 0,0
30.09.2020 08:00:00 10,5 10,5 - - 9 5 - - SSW 1011,3 3,0 6 0,0
30.09.2020 07:00:00 10,7 10,7 - - 13 7 - - SSW 1011,5 1,5 0 0,0
30.09.2020 06:00:00 10,7 10,7 - - 11 6 - - SSW 1011,7 0,3 0 -
30.09.2020 05:00:00 10,2 10,2 - - 13 7 - - S 1011,8 0,2 0 0,0
30.09.2020 04:00:00 10,2 10,2 - - 11 6 - - S 1012,3 0,3 0 -
30.09.2020 03:00:00 10,8 10,8 - - 11 6 - - S 1013,3 0,8 0 0,0
30.09.2020 02:00:00 10,9 10,9 - - 11 6 - - S 1013,9 1,4 0 0,2
30.09.2020 01:00:00 10,4 10,4 - - 11 6 - - S 1014,0 0,7 - 0,0
30.09.2020 00:00:00 10,0 10,0 - - 4 2 - - S 1014,6 0,3 0 0,0
29.09.2020 23:00:00 9,8 9,7 - - 4 2 - - SSW 1015,1 0,3 0 0,0
29.09.2020 22:00:00 10,6 10,5 - - 2 1 - - SSW 1015,5 0,2 0 0,0
29.09.2020 21:00:00 11,1 10,9 - - 4 2 - - WSW 1015,5 0,1 0 -
29.09.2020 20:00:00 10,5 9,8 - - 4 2 - - WNW 1015,6 0,2 0 0,0
29.09.2020 19:00:00 13,1 12,6 - - 11 6 - - NW 1015,3 30 6 0,0
29.09.2020 18:00:00 13,3 12,9 - - 13 7 - - NW 1015,0 12 0 -
29.09.2020 17:00:00 13,5 13,2 - - 15 8 - - WNW 1014,8 4,0 0 0,2
29.09.2020 16:00:00 13,8 13,6 - - 13 7 - - NW 1014,6 4,0 0 0,0
29.09.2020 15:00:00 14,0 13,7 - - 15 8 - - NNW 1014,3 1,5 0 0,2
29.09.2020 14:00:00 14,7 14,4 - - 5 3 - - N 1014,6 1,5 0 0,0
29.09.2020 13:00:00 14,4 14,1 - - 8 4 - - SE 1014,8 1,5 0 0,0
29.09.2020 12:00:00 14,1 13,8 - - 9 5 - - ESE 1014,8 2,0 0 4,2
29.09.2020 11:00:00 13,5 12,7 - - 8 4 - - ESE 1015,1 3,0 0 2,0
29.09.2020 10:00:00 13,6 12,2 13,7 14,7 11 6 - - ESE 1015,1 7 0 0,0
29.09.2020 09:00:00 13,5 12,7 - - 8 4 - - SE 1014,9 5 0 0,0
29.09.2020 08:00:00 12,7 12,4 - - 4 2 - - ESE 1014,5 4,0 0 0,0
29.09.2020 07:00:00 12,1 11,7 - - 4 2 - - ESE 1014,4 6 0 0,0
29.09.2020 06:00:00 11,5 11,0 - - 4 2 - - S 1014,3 6 0 0,2
29.09.2020 05:00:00 11,3 10,8 - - 5 3 - - W 1014,3 8 0 0,0
29.09.2020 04:00:00 10,5 10,1 - - 5 3 - - W 1014,1 14 0 0,0
29.09.2020 03:00:00 9,3 8,5 - - 8 4 - - WSW 1014,4 13 0 0,0
29.09.2020 02:00:00 9,4 8,6 - - 9 5 - - WSW 1014,2 29 0 0,0
29.09.2020 01:00:00 10,4 8,6 - - 5 3 - - WSW 1013,9 23 - 0,0
29.09.2020 00:00:00 10,4 8,5 - - 8 4 - - W 1014,1 30 0 -
28.09.2020 23:00:00 10,4 8,3 - - 9 5 - - WNW 1014,1 10 0 0,0
28.09.2020 22:00:00 9,5 6,7 - - 9 5 - - W 1013,9 30 0 0,0
28.09.2020 21:00:00 11,4 7,1 - - 8 4 - - W 1013,6 10 0 0,0
28.09.2020 20:00:00 12,2 6,3 - - 8 4 - - WSW 1013,2 10 0 0,0
28.09.2020 19:00:00 12,6 6,4 - - 2 1 - - NW 1012,8 10 0 0,0
28.09.2020 18:00:00 13,5 6,5 - - 8 4 - - WNW 1012,3 10 0 0,0
28.09.2020 17:00:00 14,1 6,1 - - 13 7 - - WNW 1011,9 10 24 0,0
28.09.2020 16:00:00 15,6 7,6 - - 11 6 - - NW 1011,6 10 60 0,0
28.09.2020 15:00:00 15,1 7,5 - - 16 9 - - WNW 1011,9 10 36 0,0
28.09.2020 14:00:00 14,0 9,1 - - 16 9 - - NW 1012,3 10 0 0,0
28.09.2020 13:00:00 13,1 10,1 - - 15 8 - - NW 1012,3 10 0 0,0
28.09.2020 12:00:00 11,9 9,1 - - 18 10 - - NW 1012,3 10 0 0,0
28.09.2020 11:00:00 11,1 8,9 - - 18 10 - - NW 1012,2 10 0 0,0
28.09.2020 10:00:00 10,6 9,0 13,5 14,9 16 9 - - NW 1012,1 10 0 0,0
28.09.2020 09:00:00 9,6 8,5 - - 15 8 - - NW 1012,1 10 0 0,0
28.09.2020 08:00:00 9,1 8,3 - - 18 10 - - NW 1011,9 10 0 0,0
28.09.2020 07:00:00 9,4 8,5 - - 18 10 - - NW 1011,5 13 0 0,0
28.09.2020 06:00:00 9,5 8,8 - - 18 10 - - NNW 1011,3 11 0 -
28.09.2020 05:00:00 9,6 9,0 - - 21 11 - - NNW 1011,3 9 0 0,0
28.09.2020 04:00:00 9,8 9,3 - - 18 10 - - NNW 1011,4 9 0 -
28.09.2020 03:00:00 9,8 9,3 - - 22 12 - - NNW 1011,9 10 0 0,0
28.09.2020 02:00:00 10,1 9,7 - - 24 13 - - NNW 1012,2 6 0 0,0
28.09.2020 01:00:00 10,1 9,8 - - 22 12 - - NNW 1012,3 5 - 0,0
28.09.2020 00:00:00 10,4 9,8 - - 21 11 - - NNW 1012,2 9 0 0,0
27.09.2020 23:00:00 10,6 10,0 - - 26 14 - - NNW 1012,2 8 0 0,0
27.09.2020 22:00:00 10,5 10,1 - - 26 14 - - NNW 1012,2 5 0 0,0
27.09.2020 21:00:00 10,5 10,1 - - 28 15 - - NNW 1012,1 4,3 0 -
27.09.2020 20:00:00 10,8 10,2 - - 26 14 - - NNW 1011,9 5 0 0,0
27.09.2020 19:00:00 11,2 10,1 - - 28 15 - - N 1011,6 9 0 0,0
27.09.2020 18:00:00 11,5 10,1 - - 31 17 - - N 1011,3 15 0 -
27.09.2020 17:00:00 11,3 10,7 - - 31 17 48 26 NNW 1011,0 6 0 -
27.09.2020 16:00:00 11,7 10,3 - - 34 18 50 27 N 1010,8 4,8 0 0,0
27.09.2020 15:00:00 12,0 10,5 - - 35 19 54 29 N 1010,7 10 0 0,0
27.09.2020 14:00:00 11,5 10,7 - - 34 18 48 26 N 1010,6 8 0 0,0
27.09.2020 13:00:00 11,4 10,1 - - 34 18 52 28 N 1010,5 3,0 0 0,0
27.09.2020 12:00:00 11,7 9,8 - - 31 17 50 27 N 1009,9 12 0 0,0
27.09.2020 11:00:00 11,0 9,9 - - 35 19 52 28 N 1009,9 5 0 0,0
27.09.2020 10:00:00 11,2 9,6 - - 37 20 55 30 N 1009,3 6 0 -
27.09.2020 09:00:00 11,6 9,1 - - 37 20 54 29 N 1009,0 10 0 -
27.09.2020 08:00:00 11,0 8,9 - - 35 19 55 30 N 1008,2 10 0 0,0
27.09.2020 07:00:00 10,3 9,2 - - 35 19 50 27 N 1008,4 11 0 0,0
27.09.2020 06:00:00 10,0 8,9 - - 39 21 59 32 N 1007,8 6 0 -
27.09.2020 05:00:00 9,9 8,5 - - 41 22 59 32 N 1008,0 13 0 0,0
27.09.2020 04:00:00 10,4 7,4 - - 39 21 61 33 N 1008,0 10 0 0,0
27.09.2020 03:00:00 10,1 7,9 - - 34 18 57 31 NNW 1008,3 22 0 0,2
27.09.2020 02:00:00 10,2 7,9 - - 34 18 55 30 N 1009,0 16 0 0,0
27.09.2020 01:00:00 10,0 8,3 - - 31 17 48 26 NNW 1009,1 9 - 0,0
27.09.2020 00:00:00 9,7 8,8 - - 29 16 - - NNW 1009,7 3,7 0 0,2
26.09.2020 23:00:00 10,1 8,7 - - 26 14 46 25 NNW 1010,0 8 0 0,0
26.09.2020 22:00:00 10,1 9,2 - - 21 11 - - N 1009,9 6 0 -
26.09.2020 21:00:00 10,2 7,8 - - 26 14 - - N 1009,9 9 0 0,0
26.09.2020 20:00:00 10,3 9,0 - - 29 16 48 26 N 1009,5 9 0 0,0
26.09.2020 19:00:00 11,2 8,6 - - 29 16 54 29 NNW 1009,2 10 0 0,0
26.09.2020 18:00:00 11,4 9,5 - - 29 16 48 26 N 1008,6 9 0 0,0
26.09.2020 17:00:00 10,6 9,5 - - 31 17 52 28 NNW 1008,2 9 0 -
26.09.2020 16:00:00 10,3 9,7 - - 31 17 50 27 NNW 1008,0 2,9 0 0,6
26.09.2020 15:00:00 9,5 8,9 - - 34 18 54 29 NW 1007,8 4,1 0 0,4
26.09.2020 14:00:00 8,9 7,8 - - 35 19 59 32 NW 1007,5 5 0 0,0
26.09.2020 13:00:00 9,9 6,9 - - 41 22 57 31 NNW 1007,3 14 0 0,0
26.09.2020 12:00:00 9,3 5,4 - - 41 22 57 31 NW 1007,4 25 0 0,0
26.09.2020 11:00:00 8,8 5,0 - - 39 21 59 32 NW 1007,4 30 0 0,0
26.09.2020 10:00:00 7,5 3,5 - - 39 21 57 31 NW 1007,2 40 0 0,0
26.09.2020 09:00:00 7,1 3,1 - - 34 18 54 29 NW 1007,1 40 6 0,0
26.09.2020 08:00:00 6,4 2,6 - - 34 18 52 28 NW 1007,1 30 6 0,0
26.09.2020 07:00:00 6,1 2,4 - - 35 19 52 28 NW 1006,8 45 0 0,0
26.09.2020 06:00:00 6,8 2,9 - - 37 20 52 28 NW 1006,5 35 0 0,0
26.09.2020 05:00:00 7,2 3,6 - - 34 18 54 29 NW 1006,5 24 0 0,0
26.09.2020 04:00:00 7,2 4,2 - - 34 18 57 31 NW 1006,3 10 0 0,0
26.09.2020 03:00:00 7,8 4,3 - - 37 20 59 32 NNW 1006,1 10 0 0,0
26.09.2020 02:00:00 8,4 4,7 - - 37 20 59 32 NW 1005,6 19 0 0,0
26.09.2020 01:00:00 8,9 5,1 - - 39 21 67 36 NW 1005,3 18 - 0,0
26.09.2020 00:00:00 9,0 5,5 - - 42 23 68 37 NW 1004,9 23 0 0,0
25.09.2020 23:00:00 9,1 6,1 - - 42 23 72 39 NW 1004,6 22 0 0,0
25.09.2020 22:00:00 9,4 6,0 - - 44 24 68 37 NW 1004,1 45 0 0,0
25.09.2020 21:00:00 9,6 5,1 - - 46 25 72 39 NW 1003,5 40 0 -
25.09.2020 20:00:00 9,6 3,1 - - 50 27 72 39 NW 1003,0 45 0 0,0
25.09.2020 19:00:00 10,1 4,9 - - 42 23 70 38 NW 1002,1 35 0 0,2
25.09.2020 18:00:00 9,6 6,3 - - 50 27 85 46 NW 1001,5 17 0 -
25.09.2020 17:00:00 9,7 7,1 - - 52 28 76 41 NW 1000,7 10 0 0,2
25.09.2020 16:00:00 9,9 6,9 - - 50 27 76 41 NW 1000,0 10 0 0,4
25.09.2020 15:00:00 9,8 7,1 - - 52 28 81 44 NW 999,3 10 0 0,4
25.09.2020 14:00:00 9,5 7,9 - - 42 23 72 39 NW 998,4 10 0 0,8
25.09.2020 13:00:00 9,5 7,2 - - 48 26 70 38 NW 997,9 10 0 0,2
25.09.2020 12:00:00 9,6 7,4 - - 39 21 65 35 NW 997,2 10 0 0,0
25.09.2020 11:00:00 9,2 6,9 - - 39 21 63 34 NW 997,0 10 0 0,0
25.09.2020 10:00:00 8,9 7,2 15,0 15,5 37 20 52 28 NW 996,3 25 0 0,4
25.09.2020 09:00:00 8,2 7,3 - - 31 17 50 27 WNW 995,6 10 0 2,0
25.09.2020 08:00:00 8,2 7,3 - - 28 15 - - NW 994,7 8 0 0,8
25.09.2020 07:00:00 8,3 7,6 - - 21 11 - - WNW 994,2 8 0 0,8
25.09.2020 06:00:00 8,0 7,2 - - 18 10 - - NW 994,2 5 0 0,6
25.09.2020 05:00:00 8,1 7,3 - - 21 11 - - NW 993,8 23 0 0,0
25.09.2020 04:00:00 8,4 7,6 - - 16 9 - - NW 993,3 45 0 0,0
25.09.2020 03:00:00 8,1 7,6 - - 13 7 - - WNW 993,2 10 0 0,0
25.09.2020 02:00:00 8,2 7,0 - - 11 6 - - WNW 993,2 45 0 0,6
25.09.2020 01:00:00 9,0 8,5 - - 15 8 - - W 993,3 11 - 2,0
25.09.2020 00:00:00 9,2 8,7 - - 9 5 - - WSW 993,2 22 0 0,2
24.09.2020 23:00:00 9,2 8,5 - - 8 4 - - WSW 993,3 40 0 0,0

tt = temperature
td = dewpoint
tt -20cm = temperature -20cm
tt -100cm = temperature -100cm
ff = wind speed
fx = gusts
dd = wind direction
ppp = reduced air pressure
vv = visibility
sd = sunshine duration
rr = precipitation

Next stations